Regional Weather Roundup
Issued by NWS

Home | Current Version | Previous Version | Text Only | Print | Product List | Glossary Off
Versions: 1 2 3 4 5 6 7 8 9 10 11 12 13 14 15 16 17 18 19 20 21 22 23 24 25 26 27 28 29 30 31 32 33 34 35 36 37 38 39 40 41 42 43 44 45 46 47 48 49 50

000
ASUS45 KCYS 281310
RWRWY

WYOMING REGIONAL WEATHER ROUNDUP
NATIONAL WEATHER SERVICE CHEYENNE WY
700 AM MDT TUE JUL 28 2015

NOTE:  "FAIR" INDICATES FEW OR NO CLOUDS BELOW 12,000 FEET
WITH NO SIGNIFICANT WEATHER AND/OR OBSTRUCTIONS TO VISIBILITY.

WYZ001-281400-
YELLOWSTONE NATIONAL PARK

CITY           SKY/WX    TMP DP  RH WIND       PRES   REMARKS
LK YELLOWSTONE   N/A     30  29  96 CALM      30.32R
W YELLOWSTONE  NOT AVBL

$$
WYZ002>013-054>058-071-098>099-281400-
NORTHERN WYOMING

CITY           SKY/WX    TMP DP  RH WIND       PRES   REMARKS
JACKSON        FAIR      34  32  93 N5        30.31R WCI  30
CODY           FAIR      52  32  46 N6        30.15R
GREYBULL       FAIR      50  45  83 CALM      30.10R
WORLAND        FAIR      48  41  76 S8        30.11R
SHERIDAN       FAIR      52  44  74 CALM      30.05R
BUFFALO        FAIR      48  44  86 SW7       30.08R
GILLETTE       FAIR      52  44  74 W9        30.05R
HULETT         FAIR      54  41  62 W16G23    30.03S
NEWCASTLE      FAIR      50  43  76 N5        30.07R

$$
WYZ014>020-022>026-101>103-281400-
CENTRAL WYOMING

CITY           SKY/WX    TMP DP  RH WIND       PRES   REMARKS
BIG PINEY      FAIR      35  25  66 NW3       30.31R
PINEDALE       FAIR      32  30  93 CALM      30.32R
DUBOIS         FAIR      37  28  70 N17G26    30.24R WCI  28
LANDER         FAIR      43  27  53 SW3       30.18R
RIVERTON       FAIR      50  29  44 W18       30.18R
CASPER         FAIR      51  28  41 W14       30.14R
DOUGLAS        FAIR      55  31  39 W10       30.12R

$$
WYZ021-027>030-104>119-281400-
SOUTHERN WYOMING

CITY           SKY/WX    TMP DP  RH WIND       PRES   REMARKS
EVANSTON       FAIR      40  30  67 SW5       30.33R
KEMMERER       FAIR      37  28  70 N7        30.33R WCI  32
FORT BRIDGER   SUNNY     46  32  57 W9        30.35R
ROCK SPRINGS   FAIR      47  23  38 W10       30.29R
DIXON          FAIR      41  32  72 CALM      30.33R
RAWLINS        FAIR      46  28  49 W5        30.26R
SARATOGA       FAIR      45  32  61 CALM      30.30R
LARAMIE        FAIR      49  32  52 CALM      30.24R
CHEYENNE       FAIR      55  32  41 W16       30.18R
TORRINGTON     FAIR      54  46  74 E3        30.07R
PINE BLUFFS    FAIR      61  30  31 NW20G26   30.12R

$$



USA.gov is the U.S. government's official web portal to all federal, state and local government web resources and services.